Showing default

COSMOS 1995, 19786

Orbit data source: Space-Track

COSMOS 1995, 19786 is a payload satellite owned by UNKS (CIS) in LEO that was launched on Fri, 10 Feb 1989 UTC via a TSIKLON-3 launch vehicle from the Plesetsk Missile And Space Complex (PKMTR). Payload-class satellites include a variety of spacecraft equipped with specific instruments for various scientific and technological missions. These include communications satellites like Starlink; space stations such as the ISS; scientific satellites like the Hubble; Earth observation satellites from companies like Planet Labs, Umbra, and HawkEye 360; GPS; miniature CubeSats for education and research; and military/defense satellites.

Loading next visibility...
Identifier
19786, 1989-009B
Orbit
LEO
Country
Flag of CISCIS
Related business
Manufacturer
NPO PM
Mission
Defense Communications
Bus & Motor
STRELA-3, Unknown motor
Mass
225 kg wet, 225 kg dry
Launch date (UTC)
1989-02-10 (37 years ago)
Launch vehicle
TSIKLON-3
Launch site
Plesetsk Missile And Space Complex (PKMTR)
Object type
Payload
Rocket body
Debris
Shape & HBR
Cyl, 0.8 m
Radar Cross Section
1.257 m², Large (>1 m²)

Expand to show TLE details & history
Last TLE update: 6 hours ago

TLE from 6 hours ago
0 COSMOS 1995
1 19786U 89009B   26126.27400407  .00000038  00000-0  15044-3 0  9996
2 19786  82.6244  55.3396 0002446 200.1372 328.0496 12.62234234715050
Epoch: 2026-05-06T06:34Z
TLE epoch observation values (Epoch: 2026-05-06T06:34:33.951Z)
Latitude
11.6871°
Longitude
-88.96548°
Altitude
1,414.099 km
Speed
7.155 km/s
True Right ascension
15h 35m 15s
True Declination
11° 37' 29"
Sunlit
Object was in full shadow at epoch
Visualization orbit readout
Latitude
Unknown
Longitude
Unknown
Altitude
Unknown
Speed
Unknown
Apparent Right ascension
Unknown
Apparent Declination
Unknown
Sunlit
N/A
Visualization observer readout
Local Sidereal Time
20:14:08
Azimuth
Unknown
Elevation
Unknown
Doppler factor
Unknown
Orbital elements
Apogee altitude
1,412.96 km
Perigee altitude
1,409.15 km
Semi-major axis
7,789.192 km
Eccentricity
0.00024
Inclination
82.6244°
RAAN
55.3396°
Arg. of periapsis
200.1372°
True anomaly
328.03476°
Mean anomaly
328.0496°
Eccentric anomaly
328.04218°
Mean motion
3.15722 °/min
Orbital period
114.02 mins
BSTAR
0.00015044
Loading maneuver chart data...
Computing Atmospheric mass density...
Loading historical data...
Loading historical data...
Loading historical data...
Loading historical data...
Loading historical data...
Loading historical data...
Loading historical data...

Documentation

Showing up to 5 results
|